Location: Cudham
(51.3000°N, 0.0667°E)
Time: 23:35:00
(UTC+00:00)

Cosmos 2237 Rocket - Pass Details

Date: 15 May 2026
Orbit: 834 x 849 km, 71.0° (Epoch: 11 June)

Event Time Altitude Azimuth Distance (km) Brightness Sun altitude
Rises 22:34:53 0° 331° (NNW) 3,422 7.0 -17.4°
Reaches altitude 10° 22:37:29 10° 338° (NNW) 2,481 6.0 -17.6°
Maximum altitude 22:42:53 42° 49° (NE) 1,196 3.1 -17.8°
Enters shadow 22:46:56 17° 114° (ESE) 2,024 3.8 -18.0°
